Regional Weather Roundup
Issued by NWS

Home | Current Version | Previous Version | Text Only | Print | Product List | Glossary On
Versions: 1 2 3 4 5 6 7 8 9 10 11 12 13 14 15 16 17 18 19 20 21 22 23 24 25 26 27 28 29 30 31 32 33 34 35 36 37 38 39 40 41 42 43 44 45 46 47 48 49 50
126
ASUS44 KFWD 231403
RWRTX
NORTH TEXAS HOURLY WEATHER ROUNDUP
NATIONAL WEATHER SERVICE FORT WORTH TX
900 AM CDT SAT SEP 23 2017

NOTE: "FAIR" INDICATES FEW OR NO CLOUDS BELOW 12,000 FEET WITH NO
SIGNIFICANT WEATHER AND/OR OBSTRUCTIONS TO VISIBILITY.

TXZ118-119-231500-
DALLAS/FORT WORTH METROPLEX

CITY           SKY/WX    TMP DP  RH WIND       PRES   REMARKS
DFW AIRPORT    SUNNY     79  71  76 S5        29.94R
DALLAS LOVE    SUNNY     79  70  74 S6        29.96R
FTW MEACHAM    SUNNY     78  71  79 S6        29.95R
DAL-EXECUTIVE  SUNNY     77  70  79 VRB5      29.96R
FTW-ALLIANCE   SUNNY     77  70  79 S3        29.96R
FTW-NAS-JRB    SUNNY     78  70  76 S7        29.96R
FTW-SPINKS     SUNNY     75  70  83 SE5       29.97R
ARLINGTON      SUNNY     76  71  85 S6        29.96R
GRAND PRAIRIE  SUNNY     77  70  78 CALM      29.98R
MESQUITE       SUNNY     70  70 100 SE5       29.96S
LANCASTER      SUNNY     74  68  79 CALM      29.97R
$$

TXZ091>094-102>105-117-120-121-131>134-231500-
NORTH CENTRAL TEXAS

CITY           SKY/WX    TMP DP  RH WIND       PRES   REMARKS
SHRMAN/DENISON SUNNY     76  69  78 S5        29.99R
GAINESVILLE    SUNNY     74  69  83 CALM      29.99R
BOWIE          SUNNY     74  69  87 CALM      29.97S
BRIDGEPORT     SUNNY     73  69  85 CALM      29.98S
DECATUR        SUNNY     75  70  83 S5        29.97R
DENTON         SUNNY     76  71  85 SE6       29.96R
MCKINNEY       SUNNY     76  72  87 VRB3      29.97R
BONHAM         SUNNY     74  69  85 CALM      29.98S
ROCKWALL       SUNNY     77  71  83 S6        29.97S
TERRELL        SUNNY     76  69  79 CALM      29.97R
WAXAHACHIE     SUNNY     75  71  87 SE3       29.98R
CLEBURNE       SUNNY     75  73  94 S8        29.98R
GRANBURY       SUNNY     75  69  82 E5        29.98R
$$

TXZ083>090-098>101-113>116-127>130-139>142-154-155-231500-
WESTERN NORTH TEXAS

CITY           SKY/WX    TMP DP  RH WIND       PRES   REMARKS
WICHITA FALLS  SUNNY     73  68  84 S7        29.95R
WF-KICKAPOO    SUNNY     74  69  84 S8        29.97S
VERNON         SUNNY     75  64  68 S13       29.95R
ABILENE        PTSUNNY   73  68  84 S13       29.95S
ABILENE-DYESS  SUNNY     73  68  82 S17       29.94R
BRECKENRIDGE   SUNNY     76  68  77 S8        29.96R
CISCO          SUNNY     72  68  88 SE13      29.98R
EASTLAND       SUNNY     73  69  89 S8        29.97R
RANGER         MOSUNNY   72  69  92 S8        29.97S
MINERAL WELLS  SUNNY     74  69  85 SE8       29.95R
STEPHENVILLE   CLOUDY    71  69  92 S7        30.00R
COMANCHE       MOSUNNY   72  72 100 S8        29.97S
BROWNWOOD      MOSUNNY   73  68  83 SE10      29.97S
COLEMAN        CLOUDY    72  67  86 SE8       29.97S
$$

TXZ143>147-156>162-174-175-231500-
CENTRAL TEXAS

CITY           SKY/WX    TMP DP  RH WIND       PRES   REMARKS
WACO           PTSUNNY   75  71  87 S9        29.96R
WACO-TSTC      SUNNY     73  72  94 CALM      29.96R
WACO-MCGREGOR  CLOUDY    73  72  94 S5        29.96S FOG
HILLSBORO      SUNNY     76  71  85 S6        29.96R
CORSICANA      SUNNY     77  72  84 S6        29.97R
MEXIA          SUNNY     74  71  89 CALM      29.96R
HEARNE         CLOUDY   N/A N/A N/A CALM      29.96R
CAMERON        FOG       72  71  98 CALM      29.95R VSB 1/4
TEMPLE         CLOUDY    73  73 100 S8        29.96R FOG
KILLEEN        PTSUNNY   75  73  94 SE8       29.95S
FORT HOOD      PTSUNNY   71  70  98 S7        29.93S
GATESVILLE     PTSUNNY   75  72  88 S5        29.98S
HAMILTON       CLOUDY    73  73 100 S8        29.98S
LAMPASAS       MOSUNNY   71  70  97 CALM      29.96R
$$

TXZ095>097-106>112-122>126-135>138-148>153-164>167-231500-
EAST TEXAS

CITY           SKY/WX    TMP DP  RH WIND       PRES   REMARKS
PARIS          SUNNY     76  71  85 E6        29.99R
SULPHUR SPRNGS SUNNY     75  70  86 CALM      30.00R
MOUNT PLEASANT SUNNY     75  71  89 CALM      30.00R
GILMER         SUNNY     75  70  85 CALM      29.98S
MINEOLA        SUNNY     75  72  88 CALM      29.98R
TYLER          NOT AVBL
LONGVIEW       NOT AVBL
MARSHALL       SUNNY     76  70  81 CALM      29.99S
ATHENS         SUNNY     73  70  88 CALM      29.96R
PALESTINE      SUNNY     75  74  96 CALM      29.98R
JACKSONVILLE   SUNNY     77  73  87 CALM      30.00R
HENDERSON      SUNNY     76  72  85 CALM      29.98R
CENTER         SUNNY     80  76  86 CALM      29.98R
NACOGDOCHES    SUNNY     75  72  90 CALM      29.97R
$$

SUPPLEMENTAL OBSERVATIONS (NWS FORT WORTH AREA)

CITY           SKY/WX    TMP DP  RH WIND       PRES   REMARKS
$$

SUPPLEMENTAL OBSERVATIONS (NWS NORMAN AREA)

CITY           SKY/WX    TMP DP  RH WIND       PRES   REMARKS
GOODLETT         N/A     74  64  70 SE13      29.93S
ODELL            N/A     75  68  79 SE12      29.95S
CROWELL          N/A     75  66  74 S17       29.95S
KNOX CITY        N/A     75  64  67 S17       29.94S
SEYMOUR          N/A     74  66  76 SE13      29.95R
$$

SUPPLEMENTAL OBSERVATIONS (NWS SAN ANGELO AREA)

CITY           SKY/WX    TMP DP  RH WIND       PRES   REMARKS
HASKELL          N/A     73  64  73 S10       29.95S
THROCKMORTON     N/A     75  69  80 SE6       29.96S
STAMFORD         N/A     74  67  79 S15       29.95S
CLYDE            N/A     71  68  90 S14       29.98S
$$

SUPPLEMENTAL OBSERVATIONS (NWS SHREVEPORT AREA)

CITY           SKY/WX    TMP DP  RH WIND       PRES   REMARKS
$$

SUPPLEMENTAL OBSERVATIONS ARE A COLLECTION OF AUTOMATED INSTRUMENTS
THAT ARE MAINTAINED BY A VARIETY OF FEDERAL AND STATE AGENCIES.
CERTAIN ELEMENTS...SUCH AS HUMIDITY VALUES AND SUSTAINED WIND
SPEEDS...MAY BE APPROXIMATED.





USA.gov is the U.S. government's official web portal to all federal, state and local government web resources and services.